Terug naar catalogus

STARLINK-36165

ActiefCommunicatieVLEO
NORAD 66937·PAYLOAD·🇺🇸 United States

Gelanceerd Dec 7, 2025 vanaf Vandenberg Space Force Base

Loading…

Volgende Passages (komende 24 uur)

TLE

VersSource: CelesTrak SupGP

Epoch: Sep 14, 2026, 21:09 UTC

1 66937C 25286N   26257.88173611  .00014454  00000+0  42691-3 0  2570
2 66937  53.1581 196.0115 0001327  95.2705 297.9642 15.34392557    14

Volg STARLINK-36165 in realtime met AllMySat

Download on the App Store